Weather History for Monroe, WI

Change the Weather History Date:

Tuesday, March 5, 2013

  Actual Average Record
Temperature  
Mean Temperature 29 °F -  
Max Temperature 32 °F 0 °F 62 °F (2009)
Min Temperature 26 °F - 3 °F (2002)
Degree Days  
Heating Degree Days 36    
Moisture  
Dew Point 29 °F    
Average Humidity 96    
Maximum Humidity 100    
Minimum Humidity 75    
Precipitation  
Precipitation 0.02 in - - ()
Sea Level Pressure  
Sea Level Pressure 29.91 in    
Wind  
Wind Speed 11 mph (NNE)    
Max Wind Speed 20 mph    
Max Gust Speed 26 mph    
Visibility 5 miles    
Events Snow    
Averages and records for this station are not official NWS values.
T = Trace of Precipitation, MM = Missing Value Source: NWS Daily Summary

Daily Weather History Graph

Daily Weather History Graph

Search for Another Location

Airport:

Trip Planner

Search our weather history database for the weather conditions in past years. The results will help you decide how hot, cold, wet, or windy it might be!

Date:

Astronomy

Mar. 05, 2013 Rise Set
Actual Time 6:26 AM CST 5:53 PM CST
Civil Twilight 5:58 AM CST 6:21 PM CST
Nautical Twilight 5:26 AM CST 6:54 PM CST
Astronomical Twilight 4:53 AM CST 7:26 PM CST
Moon 1:44 AM CST (3/5) 11:26 AM CST (3/5)
Length of Visible Light 12h 22m
Length of Day
11h 26m
Last Quarter, 40% of the Moon is Illuminated
Mar 5
Last Quarter
Mar 11
New
Mar 19
First Quarter
Mar 27
Full
Apr 2
Last Quarter

Hourly Weather History & Observations

Time (CST) Temp. Windchill Dew Point Humidity Pressure Visibility Wind Dir Wind Speed Gust Speed Precip Events Conditions
12:15 AM 28.4 °F 18.5 °F 24.8 °F 86% 29.96 in 10.0 mi ENE 11.5 mph 16.1 mph N/A   Overcast
12:35 AM 30.2 °F 21.9 °F 24.8 °F 80% 29.96 in 10.0 mi NE 9.2 mph - N/A   Overcast
12:55 AM 30.2 °F 21.9 °F 26.6 °F 86% 29.96 in 10.0 mi NE 9.2 mph 17.3 mph N/A   Overcast
1:15 AM 30.2 °F 22.6 °F 26.6 °F 86% 29.95 in 10.0 mi ENE 8.1 mph - N/A Snow Light Snow
1:55 AM 30.2 °F 21.3 °F 26.6 °F 86% 29.93 in 10.0 mi ENE 10.4 mph - N/A   Overcast
2:15 AM 30.2 °F 21.9 °F 26.6 °F 86% 29.93 in 10.0 mi ENE 9.2 mph - N/A   Overcast
2:35 AM 30.2 °F 22.6 °F 26.6 °F 86% 29.93 in 10.0 mi ENE 8.1 mph - N/A   Overcast
2:55 AM 30.2 °F 21.3 °F 26.6 °F 86% 29.91 in 10.0 mi NE 10.4 mph - N/A   Overcast
3:15 AM 30.2 °F 21.9 °F 23.0 °F 75% 29.91 in 10.0 mi NE 9.2 mph - N/A   Overcast
3:35 AM 30.2 °F 22.6 °F 24.8 °F 80% 29.90 in 10.0 mi NE 8.1 mph - N/A   Overcast
3:55 AM 30.2 °F 23.4 °F 24.8 °F 80% 29.90 in 10.0 mi ENE 6.9 mph - N/A   Overcast
4:15 AM 30.2 °F 21.9 °F 24.8 °F 80% 29.89 in 7.0 mi NE 9.2 mph - N/A   Overcast
4:35 AM 30.2 °F 21.3 °F 28.4 °F 93% 29.88 in 4.0 mi ENE 10.4 mph - N/A Snow Light Snow
4:55 AM 30.2 °F 21.3 °F 28.4 °F 93% 29.89 in 4.0 mi ENE 10.4 mph - N/A Snow Light Snow
5:15 AM 30.2 °F 22.6 °F 28.4 °F 93% 29.89 in 2.5 mi ENE 8.1 mph - N/A Snow Light Snow
5:35 AM 30.2 °F 21.3 °F 30.2 °F 100% 29.89 in 1.0 mi NE 10.4 mph - N/A Snow Light Snow
5:55 AM 30.2 °F 22.6 °F 30.2 °F 100% 29.88 in 1.0 mi NE 8.1 mph - N/A Snow Light Snow
6:15 AM 30.2 °F 22.6 °F 30.2 °F 100% 29.88 in 1.5 mi NE 8.1 mph - N/A Snow Light Snow
7:15 AM 30.2 °F 21.9 °F 30.2 °F 100% 29.88 in 1.0 mi NE 9.2 mph - 0.01 in Snow Light Snow
7:35 AM 30.2 °F 21.9 °F 30.2 °F 100% 29.89 in 1.5 mi NNE 9.2 mph - 0.01 in Snow Light Snow
7:55 AM 30.2 °F 21.3 °F 30.2 °F 100% 29.88 in 1.5 mi NE 10.4 mph - 0.01 in Snow Light Snow
8:15 AM 30.2 °F 21.3 °F 30.2 °F 100% 29.88 in 1.8 mi NE 10.4 mph - N/A Snow Light Snow
8:35 AM 30.2 °F 21.3 °F 30.2 °F 100% 29.88 in 1.8 mi NE 10.4 mph - N/A Snow Light Snow
8:55 AM 30.2 °F 21.9 °F 30.2 °F 100% 29.87 in 1.8 mi NNE 9.2 mph - N/A Snow Light Snow
9:15 AM 30.2 °F 21.3 °F 30.2 °F 100% 29.87 in 2.5 mi NE 10.4 mph - N/A Snow Light Snow
9:35 AM 30.2 °F 21.9 °F 30.2 °F 100% 29.86 in 4.0 mi NNE 9.2 mph - N/A Snow Light Snow
9:55 AM 30.2 °F 21.3 °F 30.2 °F 100% 29.86 in 3.0 mi NNE 10.4 mph - 0.01 in Snow Light Snow
10:15 AM 30.2 °F 20.2 °F 30.2 °F 100% 29.85 in 4.0 mi NE 12.7 mph - N/A Snow Light Snow
10:35 AM 32.0 °F 22.1 °F 30.2 °F 93% 29.84 in 2.5 mi NE 13.8 mph - N/A Snow Light Snow
10:55 AM 32.0 °F 22.1 °F 32.0 °F 100% 29.84 in 1.5 mi NE 13.8 mph - N/A Snow Light Snow
11:15 AM 32.0 °F 23.0 °F 32.0 °F 100% 29.83 in 1.8 mi NNE 11.5 mph - N/A Snow Light Snow
11:35 AM 32.0 °F 23.0 °F 32.0 °F 100% 29.83 in 1.8 mi NE 11.5 mph - N/A Snow Light Snow
11:55 AM 32.0 °F 22.5 °F 32.0 °F 100% 29.83 in 1.8 mi NNE 12.7 mph - N/A Snow Light Snow
12:15 PM 32.0 °F 22.5 °F 32.0 °F 100% 29.83 in 1.8 mi NNE 12.7 mph - N/A Snow Light Snow
12:35 PM 32.0 °F 22.1 °F 32.0 °F 100% 29.83 in 1.8 mi NNE 13.8 mph - N/A Snow Light Snow
12:55 PM 32.0 °F 22.1 °F 30.2 °F 93% 29.83 in 1.8 mi NNE 13.8 mph - N/A Snow Light Snow
1:15 PM 32.0 °F 22.1 °F 30.2 °F 93% 29.82 in 1.5 mi NNE 13.8 mph - N/A Snow Light Snow
1:35 PM 32.0 °F 22.1 °F 30.2 °F 93% 29.83 in 1.0 mi NNE 13.8 mph - N/A Snow Light Snow
1:55 PM 30.2 °F 19.8 °F 30.2 °F 100% 29.83 in 1.2 mi NNE 13.8 mph - N/A Snow Light Snow
2:15 PM 30.2 °F 18.9 °F 30.2 °F 100% 29.83 in 3.0 mi NNE 16.1 mph - N/A Snow Light Snow
2:35 PM 30.2 °F 20.8 °F 30.2 °F 100% 29.84 in 1.8 mi NNE 11.5 mph - N/A Snow Light Snow
2:55 PM 30.2 °F 19.8 °F 30.2 °F 100% 29.85 in 1.2 mi NNE 13.8 mph - N/A Snow Light Snow
3:15 PM 30.2 °F 19.3 °F 30.2 °F 100% 29.86 in 1.5 mi North 15.0 mph 20.7 mph N/A Snow Light Snow
3:35 PM 30.2 °F 20.2 °F 30.2 °F 100% 29.86 in 1.2 mi North 12.7 mph - N/A Snow Light Snow
3:55 PM 30.2 °F 18.9 °F 30.2 °F 100% 29.87 in 1.2 mi North 16.1 mph 20.7 mph N/A Snow Light Snow
4:15 PM 28.4 °F 15.8 °F 28.4 °F 100% 29.88 in 1.5 mi North 18.4 mph 23.0 mph N/A Snow Light Snow
4:35 PM 28.4 °F 15.4 °F 28.4 °F 100% 29.89 in 2.0 mi North 19.6 mph - N/A Snow Light Snow
4:55 PM 28.4 °F 16.6 °F 28.4 °F 100% 29.90 in 1.5 mi North 16.1 mph - N/A Snow Light Snow
5:15 PM 28.4 °F 17.5 °F 28.4 °F 100% 29.91 in 1.8 mi North 13.8 mph 20.7 mph N/A Snow Light Snow
5:35 PM 28.4 °F 16.2 °F 28.4 °F 100% 29.93 in 1.5 mi North 17.3 mph 24.2 mph N/A Snow Light Snow
5:55 PM 28.4 °F 17.0 °F 28.4 °F 100% 29.94 in 1.5 mi North 15.0 mph - N/A Snow Light Snow
6:15 PM 28.4 °F 17.0 °F 28.4 °F 100% 29.95 in 1.8 mi North 15.0 mph 23.0 mph N/A Snow Light Snow
6:35 PM 28.4 °F 15.4 °F 28.4 °F 100% 29.96 in 1.8 mi North 19.6 mph - N/A Snow Light Snow
6:55 PM 28.4 °F 16.6 °F 28.4 °F 100% 29.97 in 2.0 mi North 16.1 mph 20.7 mph N/A Snow Light Snow
7:15 PM 28.4 °F 17.0 °F 28.4 °F 100% 29.97 in 2.5 mi North 15.0 mph 21.9 mph N/A Snow Light Snow
7:35 PM 28.4 °F 16.6 °F 28.4 °F 100% 29.98 in 3.0 mi North 16.1 mph 21.9 mph N/A Snow Light Snow
7:55 PM 28.4 °F 17.0 °F 28.4 °F 100% 29.98 in 4.0 mi North 15.0 mph 21.9 mph N/A Snow Light Snow
8:15 PM 28.4 °F 16.2 °F 28.4 °F 100% 29.99 in 4.0 mi North 17.3 mph 24.2 mph N/A Snow Light Snow
8:35 PM 28.4 °F 16.6 °F 28.4 °F 100% 30.00 in 7.0 mi North 16.1 mph 23.0 mph N/A Snow Light Snow
8:55 PM 28.4 °F 17.0 °F 26.6 °F 93% 30.01 in 10.0 mi North 15.0 mph 26.5 mph N/A Snow Light Snow
9:15 PM 28.4 °F 18.0 °F 28.4 °F 100% 30.02 in 10.0 mi North 12.7 mph 18.4 mph N/A   Overcast
9:35 PM 28.4 °F 17.0 °F 26.6 °F 93% 30.03 in 10.0 mi North 15.0 mph 23.0 mph N/A   Overcast
9:55 PM 28.4 °F 17.5 °F 26.6 °F 93% 30.04 in 10.0 mi North 13.8 mph 20.7 mph N/A   Overcast
10:15 PM 28.4 °F 17.5 °F 26.6 °F 93% 30.04 in 10.0 mi North 13.8 mph 20.7 mph N/A   Overcast
10:35 PM 26.6 °F 16.8 °F 26.6 °F 100% 30.05 in 10.0 mi North 10.4 mph 19.6 mph N/A   Mostly Cloudy
10:55 PM 26.6 °F 16.8 °F 24.8 °F 93% 30.05 in 10.0 mi North 10.4 mph - N/A   Scattered Clouds
11:15 PM 26.6 °F 17.5 °F 24.8 °F 93% 30.05 in 10.0 mi NNW 9.2 mph - N/A   Clear
11:35 PM 26.6 °F 17.5 °F 24.8 °F 93% 30.06 in 10.0 mi NNW 9.2 mph - N/A   Clear
11:55 PM 26.6 °F 15.2 °F 24.8 °F 93% 30.07 in 10.0 mi NNW 13.8 mph - N/A   Mostly Cloudy